#Datum;Uhrzeit;WR;Pac;DaySum;Status;WR;Pac;DaySum;Status;Pdc1;Udc;Temp;WR;Pac;DaySum;Status;Pdc1;Udc;Temp;WR;Pac;DaySum;Status;Pdc1;Udc;Temp;WR;Pac;DaySum;Status;Pdc1;Pdc2;Udc1;Udc2;Temp;WR;Pac;DaySum;Status;Pdc1;Pdc2;Udc1;Udc2;Temp;WR;Pac;DaySum;Status;Pdc1;Udc;Temp;WR;Pac;DaySum;Status;Pdc1;Udc;Temp;WR;Pac;DaySum;Status;Pdc1;Udc;Temp
11.07.21;23:55:00;1;1890;14437;0;2;0;15077;0;0;0;0;3;0;9317;0;0;0;0;4;0;12130;0;0;0;0;5;0;22116;0;0;0;0;0;0;6;0;16434;0;0;0;0;0;0;7;0;14345;0;0;0;0;8;0;14338;0;0;0;0;9;0;7613;0;0;0;0
11.07.21;23:50:00;1;277;14315;0;2;0;15077;0;0;0;0;3;0;9317;0;0;0;0;4;0;12130;0;0;0;0;5;0;22116;0;0;0;0;0;0;6;0;16434;0;0;0;0;0;0;7;0;14345;0;0;0;0;8;0;14338;0;0;0;0;9;0;7613;0;0;0;0
11.07.21;23:45:00;1;249;14293;0;2;0;15077;0;0;0;0;3;0;9317;0;0;0;0;4;0;12130;0;0;0;0;5;0;22116;0;0;0;0;0;0;6;0;16434;0;0;0;0;0;0;7;0;14345;0;0;0;0;8;0;14338;0;0;0;0;9;0;7613;0;0;0;0
11.07.21;23:40:00;1;240;14272;0;2;0;15077;0;0;0;0;3;0;9317;0;0;0;0;4;0;12130;0;0;0;0;5;0;22116;0;0;0;0;0;0;6;0;16434;0;0;0;0;0;0;7;0;14345;0;0;0;0;8;0;14338;0;0;0;0;9;0;7613;0;0;0;0
11.07.21;23:35:00;1;240;14252;0;2;0;15077;0;0;0;0;3;0;9317;0;0;0;0;4;0;12130;0;0;0;0;5;0;22116;0;0;0;0;0;0;6;0;16434;0;0;0;0;0;0;7;0;14345;0;0;0;0;8;0;14338;0;0;0;0;9;0;7613;0;0;0;0
11.07.21;23:30:00;1;245;14232;0;2;0;15077;0;0;0;0;3;0;9317;0;0;0;0;4;0;12130;0;0;0;0;5;0;22116;0;0;0;0;0;0;6;0;16434;0;0;0;0;0;0;7;0;14345;0;0;0;0;8;0;14338;0;0;0;0;9;0;7613;0;0;0;0
11.07.21;23:25:00;1;282;14211;0;2;0;15077;0;0;0;0;3;0;9317;0;0;0;0;4;0;12130;0;0;0;0;5;0;22116;0;0;0;0;0;0;6;0;16434;0;0;0;0;0;0;7;0;14345;0;0;0;0;8;0;14338;0;0;0;0;9;0;7613;0;0;0;0
11.07.21;23:20:00;1;334;14187;0;2;0;15077;0;0;0;0;3;0;9317;0;0;0;0;4;0;12130;0;0;0;0;5;0;22116;0;0;0;0;0;0;6;0;16434;0;0;0;0;0;0;7;0;14345;0;0;0;0;8;0;14338;0;0;0;0;9;0;7613;0;0;0;0
11.07.21;23:15:00;1;335;14159;0;2;0;15077;0;0;0;0;3;0;9317;0;0;0;0;4;0;12130;0;0;0;0;5;0;22116;0;0;0;0;0;0;6;0;16434;0;0;0;0;0;0;7;0;14345;0;0;0;0;8;0;14338;0;0;0;0;9;0;7613;0;0;0;0
11.07.21;23:10:00;1;336;14131;0;2;0;15077;0;0;0;0;3;0;9317;0;0;0;0;4;0;12130;0;0;0;0;5;0;22116;0;0;0;0;0;0;6;0;16434;0;0;0;0;0;0;7;0;14345;0;0;0;0;8;0;14338;0;0;0;0;9;0;7613;0;0;0;0
11.07.21;23:08:00;1;388;14119;0;2;0;15077;0;0;0;0;3;0;9317;0;0;0;0;4;0;12130;0;0;0;0;5;0;22116;0;0;0;0;0;0;6;0;16434;0;0;0;0;0;0;7;0;14345;0;0;0;0;8;0;14338;0;0;0;0;9;0;7613;0;0;0;0
11.07.21;23:00:00;1;509;14072;0;2;0;15077;0;0;0;0;3;0;9317;0;0;0;0;4;0;12130;0;0;0;0;5;0;22116;0;0;0;0;0;0;6;0;16434;0;0;0;0;0;0;7;0;14345;0;0;0;0;8;0;14338;0;0;0;0;9;0;7613;0;0;0;0
11.07.21;22:55:00;1;263;14039;0;2;0;15077;0;0;0;0;3;0;9317;0;0;0;0;4;0;12130;0;0;0;0;5;0;22116;2;0;0;0;0;0;6;0;16434;2;0;0;0;0;0;7;0;14345;0;0;0;0;8;0;14338;0;0;0;0;9;0;7613;0;0;0;0
11.07.21;22:50:00;1;302;14016;0;2;0;15077;0;0;0;0;3;0;9317;0;0;0;0;4;0;12130;0;0;0;0;5;0;22116;2;0;0;0;0;0;6;0;16434;2;0;0;0;0;0;7;0;14345;0;0;0;0;8;0;14338;0;0;0;0;9;0;7613;0;0;0;0
11.07.21;22:45:00;1;300;13991;0;2;0;15077;0;0;0;0;3;0;9317;0;0;0;0;4;0;12130;0;0;0;0;5;0;22116;2;0;0;0;0;0;6;0;16434;2;0;0;0;0;0;7;0;14345;0;0;0;0;8;0;14338;0;0;0;0;9;0;7613;0;0;0;0
11.07.21;22:40:00;1;251;13966;0;2;0;15077;0;0;0;0;3;0;9317;0;0;0;0;4;0;12130;0;0;0;0;5;0;22116;2;0;0;0;0;0;6;0;16434;2;0;0;0;0;0;7;0;14345;0;0;0;0;8;0;14338;0;0;0;0;9;0;7613;0;0;0;0
11.07.21;22:35:00;1;257;13945;0;2;0;15077;0;0;0;0;3;0;9317;0;0;0;0;4;0;12130;0;0;0;0;5;0;22116;2;0;0;0;0;0;6;0;16434;2;0;0;0;0;0;7;0;14345;0;0;0;0;8;0;14338;0;0;0;0;9;0;7613;0;0;0;0
11.07.21;22:30:00;1;282;13923;0;2;0;15077;0;0;0;0;3;0;9317;0;0;0;0;4;0;12130;0;0;0;0;5;0;22116;2;0;0;0;0;0;6;0;16434;2;0;0;0;0;0;7;0;14345;0;0;0;0;8;0;14338;0;0;0;0;9;0;7613;0;0;0;0
11.07.21;22:25:00;1;282;13900;0;2;0;15077;0;0;0;0;3;0;9317;0;0;0;0;4;0;12130;0;0;0;0;5;0;22116;2;0;0;0;0;0;6;0;16434;2;0;0;0;0;0;7;0;14345;0;0;0;0;8;0;14338;0;0;0;0;9;0;7613;0;0;0;0
11.07.21;22:20:00;1;284;13876;0;2;0;15077;0;0;0;0;3;0;9317;0;0;0;0;4;0;12130;0;0;0;0;5;0;22116;2;0;0;0;0;0;6;0;16434;2;0;0;0;0;0;7;0;14345;0;0;0;0;8;0;14338;0;0;0;0;9;0;7613;0;0;0;0
11.07.21;22:15:00;1;253;13852;0;2;0;15077;0;0;0;0;3;0;9317;0;0;0;0;4;0;12130;0;0;0;0;5;0;22116;2;0;0;0;0;0;6;0;16434;2;0;0;0;0;0;7;0;14345;0;0;0;0;8;0;14338;0;0;0;0;9;0;7613;0;0;0;0
11.07.21;22:10:00;1;238;13830;0;2;0;15077;0;0;0;0;3;0;9317;0;0;0;0;4;0;12130;0;0;0;0;5;0;22116;2;0;0;0;0;0;6;0;16434;2;0;0;0;0;0;7;0;14345;0;0;0;0;8;0;14338;0;0;0;0;9;0;7613;0;0;0;0
11.07.21;22:05:00;1;289;13807;0;2;0;15077;0;0;0;0;3;0;9317;0;0;0;0;4;0;12130;0;0;0;0;5;0;22116;2;0;0;0;0;0;6;0;16434;2;0;0;0;0;0;7;0;14345;0;0;0;0;8;0;14338;0;0;0;0;9;0;7613;0;0;0;0
11.07.21;22:00:00;1;305;13783;0;2;0;15077;0;0;0;0;3;0;9317;0;0;0;0;4;0;12130;0;0;0;0;5;0;22116;2;0;0;0;0;0;6;0;16434;2;0;0;0;0;0;7;0;14345;0;0;0;0;8;0;14338;0;0;0;0;9;0;7613;0;0;0;0
11.07.21;21:55:00;1;340;13757;0;2;0;15077;0;0;0;0;3;0;9317;0;0;0;0;4;0;12130;0;0;0;0;5;0;22116;2;0;0;0;0;0;6;0;16434;2;0;0;0;0;0;7;0;14345;0;0;0;0;8;0;14338;0;0;0;0;9;0;7613;0;0;0;0
11.07.21;21:50:00;1;261;13728;0;2;0;15077;0;0;0;0;3;0;9317;0;0;0;0;4;0;12130;0;0;0;0;5;0;22116;2;0;0;0;0;0;6;0;16434;2;0;0;0;0;0;7;0;14345;0;0;0;0;8;0;14338;0;0;0;0;9;0;7613;0;0;0;0
11.07.21;21:45:00;1;258;13706;0;2;0;15077;0;0;0;0;3;0;9317;0;0;0;0;4;0;12130;0;0;0;0;5;0;22116;2;0;0;0;0;0;6;0;16434;2;0;0;0;0;0;7;0;14345;0;0;0;0;8;0;14338;0;0;0;0;9;0;7613;0;0;0;0
11.07.21;21:40:00;1;330;13684;0;2;0;15077;0;0;0;0;3;0;9317;0;0;0;0;4;0;12130;0;0;0;0;5;0;22116;2;0;0;0;0;0;6;0;16434;2;0;0;0;0;0;7;0;14345;0;0;0;0;8;0;14338;0;0;0;0;9;0;7613;0;0;0;0
11.07.21;21:35:00;1;344;13657;0;2;0;15077;0;0;0;0;3;0;9317;0;0;72;8;4;0;12130;0;0;0;0;5;0;22116;2;0;0;0;0;0;6;0;16434;2;0;0;0;0;0;7;0;14345;0;0;0;0;8;0;14338;0;0;0;0;9;0;7613;0;0;0;0
11.07.21;21:30:00;1;297;13628;0;2;0;15077;0;0;176;18;3;0;9317;6;0;295;29;4;0;12130;0;0;29;14;5;0;22116;2;0;0;0;0;0;6;0;16434;2;0;0;0;0;0;7;0;14345;0;0;0;0;8;0;14338;0;0;0;0;9;0;7613;0;0;0;0
11.07.21;21:25:00;1;283;13603;0;2;0;15077;6;0;309;27;3;0;9317;6;0;374;29;4;0;12130;2;0;97;29;5;0;22116;2;0;0;27;27;6;6;0;16434;2;0;0;0;0;0;7;0;14345;0;0;0;0;8;0;14338;0;0;0;0;9;0;7613;0;0;0;0
11.07.21;21:20:00;1;259;13579;0;2;0;15077;6;0;340;28;3;0;9317;4;2;417;30;4;0;12130;1;0;136;29;5;0;22116;26;0;0;278;309;37;6;0;16434;2;0;0;63;62;7;7;0;14345;0;0;214;23;8;0;14338;0;0;217;23;9;0;7613;2;0;280;25
11.07.21;21:15:00;1;237;13558;0;2;0;15077;6;0;362;28;3;1;9317;3;5;408;30;4;0;12130;1;0;173;30;5;0;22116;23;0;0;380;510;37;6;0;16434;23;0;0;496;491;35;7;0;14345;6;0;334;29;8;0;14338;6;0;339;29;9;0;7613;6;0;352;25
11.07.21;21:10:00;1;236;13538;0;2;0;15077;6;0;376;29;3;2;9317;6;5;433;30;4;0;12130;1;0;197;30;5;6;22115;4;0;0;382;575;38;6;0;16434;26;0;0;528;523;35;7;0;14345;6;0;381;30;8;0;14338;6;0;385;29;9;0;7613;6;1;383;25
11.07.21;21:05:00;1;237;13518;0;2;0;15077;6;0;392;29;3;0;9317;6;5;479;31;4;0;12130;1;0;213;31;5;7;22115;1;0;1;397;632;38;6;5;16434;1;0;0;543;532;36;7;0;14345;6;1;409;30;8;0;14338;6;1;414;29;9;0;7613;6;1;441;26
11.07.21;21:00:00;1;285;13499;0;2;7;15077;6;15;394;30;3;2;9317;6;8;492;31;4;1;12130;3;1;199;31;5;56;22114;1;0;12;364;577;39;6;9;16434;1;0;2;553;536;36;7;0;14345;6;4;425;30;8;0;14338;4;2;430;30;9;0;7613;6;2;462;26
11.07.21;20:55:00;1;295;13475;0;2;69;15076;4;106;356;30;3;5;9317;6;10;517;31;4;1;12130;3;1;200;32;5;88;22108;4;14;24;352;558;39;6;58;16433;1;2;16;517;498;37;7;0;14345;6;4;445;30;8;2;14338;6;4;445;30;9;1;7613;6;3;486;26
11.07.21;20:50:00;1;339;13449;0;2;108;15071;4;144;360;31;3;56;9316;6;99;453;32;4;6;12130;3;6;199;32;5;105;22101;4;26;32;352;558;39;6;79;16428;4;10;24;504;486;37;7;1;14344;6;8;447;31;8;0;14338;6;8;450;30;9;0;7613;6;0;509;26
11.07.21;20:45:00;1;350;13421;0;2;147;15062;4;185;363;31;3;82;9311;4;124;480;32;4;3;12129;3;3;200;32;5;120;22092;4;31;40;352;558;39;6;94;16421;4;13;31;504;486;37;7;5;14344;6;14;438;31;8;5;14338;6;14;439;31;9;3;7613;3;9;482;27
11.07.21;20:40:00;1;278;13391;0;2;188;15049;4;226;369;31;3;106;9305;4;150;496;32;4;11;12129;3;12;199;32;5;133;22082;4;38;45;352;558;39;6;102;16414;4;18;33;504;486;37;7;7;14344;6;11;459;31;8;10;14338;6;19;435;31;9;1;7613;6;6;504;27
11.07.21;20:35:00;1;342;13367;0;2;142;15034;4;179;363;32;3;61;9296;4;84;486;32;4;10;12128;3;10;199;33;5;141;22071;4;40;46;352;558;39;6;108;16405;4;19;35;504;486;37;7;16;14343;4;23;435;32;8;0;14337;6;0;485;31;9;1;7612;6;6;505;27
11.07.21;20:30:00;1;345;13339;0;2;73;15021;4;108;355;32;3;15;9289;6;26;480;32;4;21;12127;3;22;198;33;5;153;22059;4;44;53;352;558;39;6;118;16396;4;24;43;504;485;38;7;34;14342;4;72;356;32;8;35;14337;4;70;355;32;9;3;7612;6;8;512;27
11.07.21;20:25:00;1;282;13310;0;2;86;15015;4;122;355;32;3;37;9288;6;66;415;33;4;27;12125;3;28;198;33;5;175;22046;4;63;65;352;558;39;6;135;16386;4;38;51;504;485;38;7;51;14339;4;84;365;32;8;47;14334;4;81;361;32;9;4;7612;6;8;521;28
11.07.21;20:20:00;1;237;13287;0;2;110;15007;4;149;356;33;3;62;9286;4;101;442;34;4;51;12123;3;53;197;34;5;209;22031;4;82;80;352;558;40;6;162;16375;4;52;68;504;485;38;7;73;14335;4;110;381;33;8;72;14330;4;106;387;32;9;0;7612;6;0;552;28
11.07.21;20:15:00;1;238;13267;0;2;126;14998;4;166;354;33;3;70;9280;4;110;461;34;4;58;12119;3;61;197;34;5;212;22013;4;85;84;352;558;40;6;167;16361;4;56;69;504;485;38;7;67;14329;4;122;424;33;8;83;14324;4;120;413;32;9;11;7612;3;22;509;29
11.07.21;20:10:00;1;237;13248;0;2;122;14988;4;161;359;34;3;68;9274;4;106;444;34;4;54;12114;3;56;197;34;5;204;21996;4;82;78;352;558;40;6;160;16347;4;51;66;504;485;38;7;81;14323;4;121;416;33;8;80;14317;4;120;403;33;9;6;7611;6;13;527;29
11.07.21;20:05:00;1;238;13228;0;2;128;14977;4;167;358;34;3;72;9269;4;110;439;34;4;53;12109;3;55;197;35;5;199;21979;4;79;77;352;558;40;6;154;16334;4;50;65;504;485;38;7;64;14316;4;107;444;33;8;76;14310;4;117;398;33;9;5;7610;6;10;529;29
11.07.21;20:00:00;1;237;13208;0;2;133;14967;4;172;353;35;3;74;9263;4;113;460;35;4;60;12105;3;62;197;35;5;201;21962;4;79;80;352;558;40;6;158;16321;4;53;66;504;485;38;7;39;14311;4;63;268;20;8;79;14304;4;118;403;33;9;6;7609;6;13;524;30
11.07.21;19:55:00;1;261;13188;0;2;163;14956;4;204;356;36;3;92;9257;4;132;473;35;4;58;12100;3;60;198;36;5;212;21945;4;85;82;352;558;40;6;164;16307;4;53;71;504;485;38;7;84;14305;4;123;437;34;8;74;14297;4;112;439;33;9;7;7609;6;11;530;30
11.07.21;19:50:00;1;330;13165;0;2;411;14942;4;461;373;37;3;217;9249;4;263;475;36;4;76;12095;3;79;198;36;5;233;21927;4;92;92;352;558;40;6;178;16294;4;58;75;504;485;38;7;110;14298;4;151;436;34;8;86;14291;4;126;456;34;9;9;7608;6;14;527;31
11.07.21;19:45:00;1;339;13138;0;2;235;14908;4;278;369;38;3;131;9231;4;172;484;36;4;85;12089;3;88;199;37;5;237;21908;4;97;93;352;558;40;6;184;16279;4;63;81;504;485;38;7;118;14289;4;162;424;34;8;109;14284;4;148;422;34;9;41;7608;4;68;352;31
11.07.21;19:40:00;1;381;13109;0;2;257;14888;4;301;355;39;3;147;9220;4;192;485;37;4;112;12082;5;116;216;37;5;252;21888;4;105;105;352;558;40;6;195;16263;4;69;90;504;485;38;7;125;14279;4;167;402;34;8;129;14275;4;167;417;34;9;57;7604;4;82;402;32
11.07.21;19:35:00;1;322;13077;0;2;399;14866;4;448;370;40;3;214;9208;4;257;457;37;4;153;12072;5;159;226;38;5;287;21867;4;123;114;352;558;40;6;222;16247;4;82;98;504;486;38;7;197;14268;4;240;441;35;8;193;14264;4;237;432;34;9;78;7600;4;111;468;32
11.07.21;19:30:00;1;238;13050;0;2;328;14834;4;376;366;41;3;190;9190;4;232;437;38;4;153;12060;5;160;223;38;5;306;21843;4;131;123;352;558;41;6;232;16229;4;86;103;504;486;38;7;192;14252;4;232;430;35;8;191;14248;4;231;414;35;9;82;7593;4;114;463;33
11.07.21;19:25:00;1;302;13029;0;2;982;14806;4;1059;383;44;3;538;9174;4;592;428;39;4;408;12047;5;425;206;39;5;386;21817;4;178;152;369;558;41;6;292;16209;4;114;131;504;486;38;7;432;14236;4;476;454;35;8;373;14232;4;418;397;35;9;107;7586;4;138;462;33
11.07.21;19:20:00;1;302;13004;0;2;1653;14727;4;1758;384;45;3;924;9131;4;991;421;40;4;911;12015;5;949;202;40;5;499;21784;4;235;198;399;598;41;6;369;16184;4;150;166;504;489;38;7;856;14201;4;917;468;36;8;681;14201;4;732;366;35;9;118;7577;4;148;361;34
11.07.21;19:15:00;1;288;12979;0;2;1992;14586;4;2105;383;46;3;1122;9052;4;1198;436;40;4;1254;11937;5;1306;221;41;5;612;21742;4;283;257;375;602;41;6;464;16153;4;191;217;526;531;39;7;1061;14129;4;1134;466;36;8;909;14145;4;971;394;36;9;304;7567;4;340;352;35
11.07.21;19:10:00;1;237;12955;0;2;2092;14421;4;2218;379;46;3;1180;8958;4;1259;436;41;4;1381;11833;5;1438;230;41;5;785;21691;4;385;324;399;628;41;6;568;16114;4;249;262;546;539;39;7;1202;14041;4;1282;468;36;8;1128;14069;4;1195;432;36;9;458;7542;4;502;380;36
11.07.21;19:05:00;1;248;12935;0;2;2191;14247;4;2320;375;47;3;1262;8861;4;1343;440;41;4;1484;11719;5;1546;229;41;5;1005;21623;4;501;419;403;640;41;6;744;16065;4;327;348;551;533;39;7;1394;13941;4;1475;470;37;8;1407;13975;4;1490;459;36;9;604;7504;4;659;424;37
11.07.21;19:00:00;1;282;12914;0;2;2355;14064;4;2488;376;47;3;1376;8756;4;1463;436;41;4;1669;11595;5;1738;228;42;5;1227;21538;4;621;513;414;652;42;6;901;16002;4;396;427;577;539;39;7;1493;13825;4;1579;460;37;8;1518;13858;4;1599;464;37;9;772;7454;4;837;498;37
11.07.21;18:55:00;1;304;12890;0;2;2545;13868;4;2685;372;48;3;1493;8641;4;1581;441;42;4;1850;11456;5;1927;228;42;5;1543;21432;4;797;651;410;669;42;6;1140;15924;4;543;524;583;532;39;7;1724;13701;4;1823;460;37;8;1760;13731;4;1859;461;37;9;935;7389;4;1010;510;38
11.07.21;18:50:00;1;292;12864;0;2;2543;13655;4;2681;374;48;3;1501;8516;4;1589;447;42;4;1843;11302;5;1920;229;42;5;1557;21303;4;806;658;406;666;42;6;1139;15829;4;534;534;575;527;39;7;1762;13557;4;1856;462;38;8;1790;13585;4;1887;456;37;9;954;7312;4;1029;514;38
11.07.21;18:45:00;1;371;12838;0;2;2519;13443;4;2660;372;48;3;1464;8391;4;1555;458;42;4;1823;11148;5;1898;228;43;5;1683;21172;4;878;714;407;660;42;6;1263;15733;4;593;593;573;534;39;7;1849;13410;4;1953;462;38;8;1854;13435;4;1951;441;37;9;1007;7232;4;1084;518;39
11.07.21;18:40:00;1;1785;12802;0;2;2793;13233;4;2948;372;49;3;1694;8268;4;1792;458;42;4;2071;10995;5;2157;226;43;5;1933;21030;4;1016;822;410;663;43;6;1420;15628;4;692;659;582;528;39;7;2082;13256;4;2194;463;38;8;2097;13281;4;2211;457;38;9;1135;7149;4;1215;511;39
11.07.21;18:35:00;1;375;12695;0;2;2940;12999;4;3105;373;49;3;1760;8127;4;1862;437;43;4;2224;10823;5;2317;227;43;5;2270;20866;4;1202;973;410;673;43;6;1680;15507;4;826;788;580;534;39;7;2238;13083;4;2357;464;38;8;2267;13106;4;2386;461;38;9;1222;7053;4;1309;509;39
11.07.21;18:30:00;1;329;12664;0;2;2970;12755;4;3129;370;50;3;1759;7980;4;1859;434;43;4;2245;10637;5;2338;225;43;5;2326;20676;4;1237;1003;418;669;43;6;1736;15366;4;848;820;572;538;40;7;2341;12896;4;2461;457;38;8;2375;12917;4;2489;448;38;9;1282;6952;4;1369;509;39
11.07.21;18:25:00;1;309;12637;0;2;3055;12507;4;3218;369;50;3;1826;7834;4;1923;438;43;4;2340;10450;5;2437;225;44;5;2507;20480;4;1335;1078;417;658;43;6;1868;15221;4;907;894;578;544;40;7;2443;12701;4;2563;456;38;8;2465;12721;4;2594;447;38;9;1332;6846;4;1421;510;40
11.07.21;18:20:00;1;361;12610;0;2;3156;12252;4;3321;364;50;3;1892;7682;4;1997;436;43;4;2450;10255;5;2552;225;44;5;2795;20269;4;1496;1212;408;670;43;6;2074;15064;4;1019;997;572;540;40;7;2581;12497;4;2713;460;39;8;2604;12516;4;2736;455;39;9;1403;6735;4;1497;503;40
11.07.21;18:15:00;1;361;12580;0;2;3157;11990;4;3325;372;50;3;1915;7524;4;2023;452;43;4;2450;10051;5;2552;225;44;5;2800;20037;4;1500;1212;411;665;43;6;2084;14891;4;1029;993;576;538;40;7;2668;12282;4;2812;460;39;8;2697;12296;4;2834;454;39;9;1463;6617;4;1557;499;40
11.07.21;18:10:00;1;314;12550;0;2;3212;11727;4;3386;366;50;3;1982;7365;4;2092;458;43;4;2498;9847;5;2602;223;44;5;2977;19803;4;1590;1285;409;668;44;6;2207;14717;4;1092;1056;569;541;40;7;2764;12060;4;2904;457;39;8;2782;12072;4;2921;452;39;9;1511;6495;4;1606;501;40
11.07.21;18:05:00;1;343;12523;0;2;3312;11459;4;3495;370;51;3;2069;7200;4;2186;456;43;4;2603;9639;5;2711;223;44;5;3239;19553;4;1759;1400;409;656;44;6;2418;14531;4;1196;1162;571;541;40;7;2935;11829;4;3093;460;39;8;2948;11840;4;3099;453;39;9;1606;6369;4;1708;498;40
11.07.21;18:00:00;1;343;12495;0;2;3401;11184;4;3587;363;51;3;2128;7027;4;2246;455;43;4;2688;9422;5;2800;225;44;5;3447;19281;4;1865;1496;407;663;44;6;2563;14329;4;1264;1240;573;540;40;7;3058;11586;4;3209;459;39;8;3064;11595;4;3223;452;39;9;1674;6237;4;1778;503;41
11.07.21;17:55:00;1;344;12466;0;2;2984;10899;4;3147;369;50;3;1802;6850;4;1903;422;43;4;2418;9198;5;2518;221;44;5;3166;18991;4;1735;1361;405;649;44;6;2473;14114;4;1219;1200;565;539;40;7;3211;11332;4;3366;453;39;8;3235;11341;4;3397;449;39;9;1760;6097;4;1865;495;40
11.07.21;17:50:00;1;329;12437;0;2;3697;10650;4;3897;362;51;3;2411;6699;4;2539;442;44;4;2967;8996;5;3091;220;45;5;3941;18739;4;2136;1725;408;662;44;6;2895;13923;4;1440;1412;560;532;40;7;1994;11063;4;2108;446;39;8;1886;11070;4;1990;427;39;9;877;5951;4;953;496;41
11.07.21;17:45:00;1;350;12409;0;2;3919;10346;4;4125;360;51;3;2444;6499;4;2572;441;44;4;3119;8752;5;3248;222;44;5;4180;18379;4;2280;1821;405;662;44;6;3033;13658;4;1530;1461;567;541;40;7;3935;10887;4;4127;447;39;8;3892;10899;4;4085;444;39;9;2160;5867;4;2287;491;41
11.07.21;17:40:00;1;350;12380;0;2;3820;10024;4;4020;356;51;3;2399;6299;4;2523;439;44;4;3106;8493;5;3235;219;44;5;4525;18024;4;2466;1984;405;652;44;6;3358;13394;4;1702;1622;563;533;40;7;3795;10558;4;3990;449;39;8;3809;10575;4;3996;443;39;9;2089;5687;4;2212;483;41
11.07.21;17:35:00;1;359;12351;0;2;3868;9705;4;4075;361;51;3;2462;6098;4;2595;458;43;4;3154;8234;5;3286;221;44;5;4609;17648;4;2519;2023;403;652;44;6;3403;13115;4;1719;1651;562;535;40;7;3805;10241;4;3992;449;39;8;3806;10256;4;3988;445;39;9;2079;5512;4;2202;497;41
11.07.21;17:30:00;1;402;12320;0;2;4036;9384;4;4245;358;50;3;2527;5893;4;2665;472;43;4;3276;7971;5;3412;221;44;5;4916;17262;4;2704;2159;403;649;44;6;3639;12830;4;1838;1779;562;534;40;7;3919;9925;4;4115;443;39;8;3904;9943;4;4100;443;39;9;2142;5341;4;2267;485;41
11.07.21;17:25:00;1;320;12286;0;2;3874;9046;4;4081;353;49;3;2417;5682;4;2548;449;43;4;3352;7698;5;3492;220;43;5;5561;16846;4;3075;2444;402;656;44;6;4089;12522;4;2068;2012;559;536;40;7;4353;9597;4;4574;448;38;8;4420;9615;4;4641;437;38;9;2417;5160;4;2559;487;41
11.07.21;17:20:00;1;299;12260;0;2;4044;8735;4;4262;359;48;3;2612;5488;4;2754;451;42;4;3387;7427;5;3528;221;42;5;5798;16417;4;3211;2552;405;657;44;6;4353;12204;4;2235;2124;567;539;40;7;4626;9236;4;4854;451;38;8;4609;9248;4;4840;447;38;9;2524;4962;4;2671;492;40
11.07.21;17:15:00;1;388;12234;0;2;2224;8391;4;2366;358;48;3;1373;5265;4;1461;457;41;4;1821;7136;5;1897;216;42;5;2764;15940;4;1503;1196;392;640;44;6;2080;11849;4;1033;999;541;518;40;7;3485;8848;4;3655;447;38;8;3649;8862;4;3831;436;37;9;1870;4748;4;1987;491;39
11.07.21;17:10:00;1;402;12201;0;2;4804;8206;4;5076;356;49;3;3160;5148;4;3327;442;42;4;3796;6982;5;3954;214;43;5;5701;15709;4;3170;2509;389;645;44;6;4221;11676;4;2130;2096;556;521;40;7;3464;8559;4;3642;423;37;8;2898;8557;4;3046;406;37;9;1679;4592;4;1785;484;40
11.07.21;17:05:00;1;375;12167;0;2;5162;7807;4;5448;359;47;3;3337;4885;4;3505;449;41;4;4428;6666;5;4613;213;41;5;7721;15208;4;4288;3454;392;631;43;6;5811;11306;4;3009;2864;542;519;39;7;5425;8263;4;5701;439;36;8;5412;8310;4;5685;443;36;9;2993;4449;4;3172;485;39
11.07.21;17:00:00;1;339;12137;0;2;4744;7378;4;4990;364;45;3;2857;4608;4;3007;457;40;4;3991;6297;5;4157;222;40;5;7767;14575;4;4347;3443;395;635;42;6;5749;10836;4;2987;2818;549;521;39;7;4076;7808;4;4279;448;35;8;4358;7857;4;4574;436;35;9;2196;4198;4;2329;488;38
11.07.21;16:55:00;1;362;12108;0;2;4142;6975;4;4361;360;44;3;2694;4362;4;2844;468;39;4;3586;5955;5;3736;220;39;5;7249;13972;4;4044;3223;394;630;41;6;5293;10385;4;2742;2601;549;523;38;7;3592;7482;4;3762;450;35;8;3837;7509;4;4029;445;34;9;2104;4022;4;2237;490;37
11.07.21;16:50:00;1;490;12076;0;2;3611;6638;4;3799;366;43;3;2264;4143;4;2393;477;39;4;2960;5664;5;3083;223;38;5;6827;13339;4;3834;2982;400;653;40;6;5285;9920;4;2743;2580;566;525;37;7;5280;7167;4;5540;444;34;8;4700;7177;4;4941;455;34;9;2618;3843;4;2779;502;36
11.07.21;16:45:00;1;999;12034;0;2;5410;6346;10;5776;388;41;3;3594;3960;10;3868;498;37;4;4770;5415;5;4969;240;36;5;9645;12802;4;5459;4256;404;673;38;6;7273;9517;4;3789;3598;574;545;36;7;4445;6746;4;4659;407;33;8;4911;6800;4;5175;470;33;9;2705;3635;4;2869;500;36
11.07.21;16:40:00;1;615;11950;0;2;5882;5896;4;6265;408;37;3;3685;3660;4;4012;531;35;4;5123;5017;5;5336;254;33;5;9878;11999;4;5550;4378;416;682;37;6;7140;8914;4;3735;3503;581;556;35;7;5162;6385;4;5421;442;32;8;5207;6402;4;5473;462;31;9;2990;3415;4;3174;511;35
11.07.21;16:35:00;1;402;11900;0;2;2423;5407;4;2543;395;30;3;1598;3357;4;1696;507;31;4;2154;4590;5;2244;239;30;5;4466;11184;4;2443;1970;423;699;37;6;3426;8303;4;1727;1681;594;565;35;7;4906;5947;4;5151;460;31;8;4846;5950;4;5100;477;30;9;2789;3153;4;2958;523;31
11.07.21;16:30:00;1;441;11866;0;2;1052;5198;4;1114;394;29;3;675;3219;4;735;503;30;4;912;4404;5;950;237;29;5;2033;10839;4;1068;881;417;667;37;6;1524;8037;4;743;729;585;551;35;7;1325;5526;4;1399;464;30;8;1336;5533;4;1414;469;30;9;732;2915;4;795;520;29
11.07.21;16:25:00;1;398;11830;0;2;932;5110;4;991;392;28;3;589;3162;4;648;508;30;4;813;4327;5;847;233;29;5;1870;10675;4;969;809;408;664;37;6;1395;7914;4;675;673;581;548;35;7;1033;5415;4;1102;461;30;8;1036;5421;4;1102;454;30;9;562;2855;4;615;513;29
11.07.21;16:20:00;1;393;11797;0;2;886;5032;4;944;397;28;3;560;3113;4;617;509;30;4;770;4260;5;802;236;29;5;1763;10520;4;916;764;411;661;37;6;1311;7798;4;628;632;585;548;35;7;986;5329;4;1040;469;30;8;976;5335;4;1040;463;30;9;529;2807;4;581;514;28
11.07.21;16:15:00;1;441;11764;0;2;611;4959;4;659;386;27;3;385;3067;4;435;495;30;4;522;4195;5;544;235;29;5;1208;10377;4;616;525;403;645;37;6;906;7691;4;420;433;572;541;35;7;685;5247;4;739;465;30;8;687;5254;4;740;467;30;9;374;2763;4;419;502;28
11.07.21;16:10:00;1;498;11727;0;2;453;4907;4;494;382;27;3;280;3034;4;329;488;29;4;368;4151;5;384;228;29;5;866;10279;4;434;372;396;636;37;6;634;7618;4;289;300;546;519;35;7;481;5188;4;527;459;30;8;482;5196;4;531;459;30;9;258;2732;4;297;496;28
11.07.21;16:05:00;1;503;11685;0;2;398;4870;4;441;387;27;3;246;3011;4;292;488;29;4;326;4120;5;340;229;29;5;781;10209;4;389;337;390;639;37;6;570;7567;4;263;275;548;531;35;7;403;5149;4;451;450;30;8;411;5155;4;451;446;30;9;219;2710;4;254;498;28
11.07.21;16:00:00;1;506;11643;0;2;325;4836;4;364;381;27;3;200;2990;4;245;490;29;4;264;4093;5;275;225;29;5;643;10144;4;313;276;388;622;37;6;463;7519;4;214;219;518;496;35;7;350;5115;4;387;459;30;8;345;5121;4;386;457;30;9;185;2692;4;221;495;28
11.07.21;15:55:00;1;508;11603;0;2;265;4809;4;301;372;27;3;162;2974;4;201;488;29;4;207;4071;5;216;217;29;5;530;10092;4;260;230;389;602;37;6;375;7482;4;170;179;504;486;35;7;260;5086;4;294;457;30;8;255;5092;4;294;457;30;9;140;2676;4;169;497;28
11.07.21;15:50:00;1;507;11561;0;2;270;4787;4;306;378;28;3;164;2960;4;203;482;30;4;207;4054;5;216;220;29;5;544;10048;4;266;243;390;600;37;6;384;7451;4;172;184;504;486;35;7;248;5064;4;292;459;31;8;259;5071;4;303;435;30;9;138;2664;4;167;488;28
11.07.21;15:45:00;1;508;11518;0;2;279;4765;4;317;374;28;3;171;2946;4;212;488;30;4;220;4037;5;229;221;29;5;566;10003;4;279;242;388;612;37;6;408;7419;4;183;198;523;526;35;7;271;5043;4;311;447;31;8;272;5050;4;308;447;30;9;142;2653;4;175;497;28
11.07.21;15:40:00;1;507;11476;0;2;294;4741;4;335;381;28;3;181;2932;4;223;488;30;4;231;4018;5;241;222;29;5;602;9955;4;290;257;391;623;37;6;434;7385;4;198;205;527;525;35;7;288;5020;4;332;451;31;8;290;5027;4;333;449;30;9;153;2641;4;184;496;28
11.07.21;15:35:00;1;454;11434;0;2;304;4717;4;340;374;28;3;185;2917;4;228;476;30;4;241;3999;5;250;222;29;5;620;9905;4;295;264;390;618;37;6;451;7348;4;206;215;541;521;35;7;293;4997;4;335;446;31;8;304;5003;4;334;436;30;9;158;2628;4;192;494;28
11.07.21;15:30:00;1;463;11396;0;2;319;4692;4;358;379;28;3;197;2902;4;239;472;30;4;255;3979;5;266;223;29;5;652;9854;4;316;279;391;622;37;6;472;7310;4;211;227;539;519;35;7;328;4972;4;366;442;31;8;320;4977;4;365;451;30;9;175;2615;4;205;482;29
11.07.21;15:25:00;1;514;11357;0;2;358;4665;4;399;380;29;3;219;2885;4;265;493;31;4;288;3958;5;300;224;29;5;709;9799;4;338;302;402;624;37;6;515;7271;4;237;247;549;527;35;7;369;4945;4;405;451;31;8;368;4951;4;407;456;30;9;194;2600;4;231;492;29